Big Delta, AK

12:03 PM AKDT on March 30, 2017 (GMT -0800)
Allen Army Air Field

Weather History for PABI - October, 2011

Change the Weather History Date:

Sunday, October 23, 2011

  Actual Average Record
Temperature  
Mean Temperature 16 °F -  
Max Temperature 25 °F 23 °F 42 °F (2002)
Min Temperature 8 °F 10 °F -11 °F (1996)
Degree Days  
Heating Degree Days 48    
Moisture  
Dew Point 14 °F    
Average Humidity 87    
Maximum Humidity 96    
Minimum Humidity 75    
Precipitation  
Precipitation 0.00 in - - ()
Sea Level Pressure  
Sea Level Pressure 29.74 in    
Wind  
Wind Speed 5 mph (ESE)    
Max Wind Speed 13 mph    
Max Gust Speed 18 mph    
Visibility 10 miles    
Events Snow    
Averages and records for this station are not official NWS values.
T = Trace of Precipitation, MM = Missing Value Source: NWS Daily Summary

Daily Weather History Graph

Daily Weather History Graph

Search for Another Location

Airport or City:

Trip Planner

Search our weather history database for the weather conditions in past years. The results will help you decide how hot, cold, wet, or windy it might be!

Date:

Astronomy

Oct. 23, 2011 Rise Set
Actual Time 8:56 AM AKDT 5:56 PM AKDT
Civil Twilight 8:06 AM AKDT 6:46 PM AKDT
Nautical Twilight 7:11 AM AKDT 7:41 PM AKDT
Astronomical Twilight 6:16 AM AKDT 8:36 PM AKDT
Moon 4:10 AM AKDT (10/23) 4:43 PM AKDT (10/23)
Length of Visible Light 10h 39m
Length of Day
8h 59m
Waning Crescent, 13% of the Moon is Illuminated
Oct 23
Waning Crescent
Oct 26
New
Nov 2
First Quarter
Nov 10
Full
Nov 18
Last Quarter

Hourly Weather History & Observations

Time (AKDT) Temp. Windchill Dew Point Humidity Pressure Visibility Wind Dir Wind Speed Gust Speed Precip Events Conditions
12:53 AM 18.0 °F 11.1 °F 16.0 °F 92% 29.67 in 10.0 mi ESE 4.6 mph - N/A   Clear
1:53 AM 16.0 °F - 15.1 °F 96% 29.69 in 10.0 mi Calm Calm - N/A   Clear
2:53 AM 12.0 °F 5.9 °F 10.9 °F 95% 29.70 in 10.0 mi SSE 3.5 mph - N/A   Clear
3:53 AM 12.0 °F - 10.0 °F 92% 29.71 in 10.0 mi Calm Calm - N/A   Clear
4:53 AM 10.0 °F - 7.0 °F 87% 29.72 in 10.0 mi Calm Calm - N/A   Clear
5:53 AM 9.0 °F - 6.1 °F 88% 29.73 in 10.0 mi Calm Calm - N/A   Clear
6:08 AM 8.6 °F - 6.8 °F 92% 29.63 in 10.0 mi Calm Calm - N/A   Scattered Clouds
6:53 AM 8.1 °F - 6.1 °F 92% 29.75 in 10.0 mi Calm Calm - N/A   Mostly Cloudy
7:53 AM 10.9 °F 1.4 °F 9.0 °F 92% 29.75 in 10.0 mi SE 5.8 mph - N/A   Overcast
8:53 AM 12.9 °F - 10.0 °F 88% 29.75 in 10.0 mi Calm Calm - N/A   Overcast
9:53 AM 16.0 °F 5.3 °F 14.0 °F 92% 29.75 in 10.0 mi East 8.1 mph - N/A   Mostly Cloudy
10:53 AM 18.0 °F 7.7 °F 16.0 °F 92% 29.76 in 8.0 mi East 8.1 mph - 0.00 in Snow Light Snow
11:53 AM 19.9 °F 10.1 °F 17.1 °F 89% 29.76 in 8.0 mi East 8.1 mph - 0.00 in   Mostly Cloudy
12:53 PM 23.0 °F 11.1 °F 19.0 °F 85% 29.75 in 10.0 mi East 12.7 mph - N/A   Mostly Cloudy
1:53 PM 25.0 °F 15.5 °F 19.0 °F 78% 29.76 in 10.0 mi East 9.2 mph - N/A   Mostly Cloudy
2:53 PM 25.0 °F 13.6 °F 18.0 °F 75% 29.77 in 10.0 mi ESE 12.7 mph - N/A   Mostly Cloudy
3:53 PM 25.0 °F 17.1 °F 19.0 °F 78% 29.77 in 10.0 mi ESE 6.9 mph - N/A   Mostly Cloudy
4:53 PM 24.1 °F 14.4 °F 18.0 °F 77% 29.77 in 10.0 mi ESE 9.2 mph - N/A   Mostly Cloudy
5:53 PM 24.1 °F 15.2 °F 18.0 °F 77% 29.77 in 10.0 mi ESE 8.1 mph - N/A   Overcast
6:53 PM 23.0 °F 11.7 °F 19.0 °F 85% 29.77 in 10.0 mi ESE 11.5 mph - N/A   Overcast
7:53 PM 23.0 °F 12.4 °F 18.0 °F 81% 29.77 in 10.0 mi ESE 10.4 mph 18.4 mph N/A   Overcast
8:53 PM 21.9 °F 10.4 °F 17.1 °F 82% 29.77 in 10.0 mi ESE 11.5 mph - N/A   Overcast
9:53 PM 21.0 °F 8.6 °F 17.1 °F 85% 29.76 in 10.0 mi ESE 12.7 mph - N/A   Overcast
10:53 PM 19.9 °F 7.3 °F 17.1 °F 89% 29.75 in 10.0 mi ESE 12.7 mph - N/A   Scattered Clouds
11:53 PM 19.9 °F 7.3 °F 16.0 °F 85% 29.74 in 10.0 mi ESE 12.7 mph - N/A   Clear